Weather History for Tin City, AK

Change the Weather History Date:

Sunday, October 28, 2012

  Actual Average Record
Temperature  
Mean Temperature 28 °F -  
Max Temperature 32 °F 27 °F 38 °F (2013)
Min Temperature 24 °F 20 °F 10 °F (2004)
Degree Days  
Heating Degree Days 37    
Moisture  
Dew Point 28 °F    
Average Humidity 99    
Maximum Humidity 100    
Minimum Humidity 88    
Precipitation  
Precipitation 0.00 in - - ()
Sea Level Pressure  
Sea Level Pressure 30.28 in    
Wind  
Wind Speed 28 mph (NNE)    
Max Wind Speed 121 mph    
Max Gust Speed 47 mph    
Visibility 6 miles    
Events Fog , Rain , Snow    
Averages and records for this station are not official NWS values.
T = Trace of Precipitation, MM = Missing Value Source: NWS Daily Summary

Daily Weather History Graph

Daily Weather History Graph

Search for Another Location

Airport:

Trip Planner

Search our weather history database for the weather conditions in past years. The results will help you decide how hot, cold, wet, or windy it might be!

Date:

Astronomy

Oct. 28, 2012 Rise Set
Actual Time 10:52 AM AKDT 6:56 PM AKDT
Civil Twilight 9:57 AM AKDT 7:52 PM AKDT
Nautical Twilight 8:57 AM AKDT 8:52 PM AKDT
Astronomical Twilight 7:59 AM AKDT 9:50 PM AKDT
Moon 6:19 PM AKDT (10/28) 9:54 AM AKDT (10/28)
Length of Visible Light 9h 55m
Length of Day
8h 04m
Waxing Gibbous, 99% of the Moon is Illuminated
Oct 28
Waxing Gibbous
Oct 29
Full
Nov 6
Last Quarter
Nov 13
New
Nov 20
First Quarter

Hourly Weather History & Observations

Time (AKDT) Temp. Windchill Dew Point Humidity Pressure Visibility Wind Dir Wind Speed Gust Speed Precip Events Conditions
12:55 AM 25.7 °F 14.0 °F 26.1 °F 100% 30.32 in 0.2 mi ENE 13.8 mph - N/A Snow Light Snow
1:55 AM 26.4 °F 15.0 °F 27.1 °F 100% 30.32 in 0.2 mi NE 13.8 mph - N/A Snow Light Snow
2:55 AM 29.8 °F 14.0 °F 30.6 °F 100% 30.32 in 0.2 mi NE 33.4 mph 36.8 mph N/A Fog Light Freezing Drizzle
3:55 AM 30.0 °F - 30.7 °F 100% 30.32 in 0.2 mi North - - N/A Fog Light Freezing Drizzle
4:55 AM 29.5 °F - 29.8 °F 100% 30.30 in 0.2 mi North - - N/A Fog , Snow Light Snow
5:55 AM 27.5 °F - 27.7 °F 100% 30.29 in 0.2 mi North - - N/A Fog , Snow Light Snow
6:07 AM 26.6 °F - 26.6 °F 100% 30.29 in 1.0 mi North - - N/A Snow Light Snow
6:42 AM 26.6 °F - 26.6 °F 100% 30.30 in 5.0 mi North - - N/A Snow Light Snow
6:55 AM 25.9 °F - 26.2 °F 100% 30.30 in 10.0 mi North - - N/A   Scattered Clouds
7:17 AM 26.6 °F - 26.6 °F 100% 30.29 in 1.8 mi North - - N/A Snow Light Snow Showers
7:37 AM - - - N/A% 30.30 in 0.2 mi North - - N/A Fog Light Freezing Fog
7:55 AM - - - N/A% 30.30 in 0.2 mi North - - N/A   Light Freezing Drizzle
8:55 AM 24.6 °F - 25.0 °F 100% 30.29 in 10.0 mi North - - N/A Snow Light Snow
9:55 AM - - - N/A% 30.29 in 10.0 mi North - - N/A   Mostly Cloudy
10:55 AM 26.2 °F - 26.8 °F 100% 30.30 in 10.0 mi North - - N/A   Mostly Cloudy
11:55 AM 27.5 °F - 27.9 °F 100% 30.28 in 10.0 mi North - - N/A   Mostly Cloudy
12:55 PM 26.8 °F - 27.3 °F 100% 30.28 in 10.0 mi North - - N/A   Mostly Cloudy
1:55 PM 27.5 °F - 27.9 °F 100% 30.27 in 10.0 mi North - - N/A Snow Light Snow
2:55 PM - - - N/A% 30.26 in 10.0 mi NW 17.3 mph 47.2 mph N/A   Mostly Cloudy
3:55 PM 27.7 °F - 28.2 °F 100% 30.26 in 10.0 mi WSW 120.8 mph 176.1 mph N/A   Squalls
4:55 PM 28.8 °F - 28.8 °F 100% 30.24 in 10.0 mi North - - N/A Snow Light Snow Showers
5:55 PM 31.1 °F - 29.1 °F 92% 30.24 in 10.0 mi North - - N/A   Mostly Cloudy
6:55 PM 32.0 °F 22.5 °F 28.9 °F 88% 30.22 in 10.0 mi NNE 12.7 mph - N/A Rain Light Rain
7:55 PM 31.6 °F 20.4 °F 29.1 °F 90% 30.23 in 10.0 mi NNE 17.3 mph 24.2 mph N/A   Mostly Cloudy
8:55 PM 31.5 °F 18.8 °F 30.6 °F 96% 30.23 in 10.0 mi NNE 21.9 mph - N/A   Mostly Cloudy
9:55 PM 31.5 °F 18.8 °F 31.6 °F 100% 30.25 in 10.0 mi NNE 21.9 mph - N/A Rain Light Freezing Rain
10:28 PM 32.0 °F 17.2 °F 32.0 °F 100% 30.25 in 2.0 mi NNE 32.2 mph 36.8 mph N/A Rain , Snow Light Rain Showers
10:48 PM 30.2 °F 13.7 °F 30.2 °F 100% 30.26 in 1.0 mi NNE 38.0 mph 46.0 mph N/A Snow Light Snow Showers
10:55 PM 29.7 °F 13.5 °F 29.7 °F 100% 30.27 in 0.8 mi NNE 34.5 mph 46.0 mph N/A Snow Light Snow Showers
11:55 PM 28.6 °F 11.6 °F 28.4 °F 99% 30.27 in 0.5 mi NNE 36.8 mph 44.9 mph N/A Snow Snow